Location: Memmingen
(47.9881°N, 10.1569°E)
Time: 01:45:30
(UTC+01:00)

ISS - Visible Passes

Search period start: 29 November 2021 00:00
Search period end: 09 December 2021 00:00
Orbit: 417 x 423 km, 51.6° (Epoch: 28 November)

Date Brightness Start Highest point End Pass type
(mag) Time Alt. Az. Time Alt. Az. Time Alt. Az.
29 Nov -3.3 17:05:09 10° W 17:08:28 50° N 17:11:48 10° ENE visible
29 Nov -2.7 18:42:21 10° WNW 18:44:54 39° NNW 18:44:54 39° NNW visible
30 Nov -3.2 17:55:06 10° WNW 17:58:23 44° N 17:59:38 29° NE visible
30 Nov -0.6 19:32:01 10° WNW 19:32:37 14° WNW 19:32:37 14° WNW visible
01 Dec -3.1 17:07:49 10° WNW 17:11:05 43° N 17:14:21 10° ENE visible
01 Dec -2.9 18:44:49 10° WNW 18:47:22 46° NW 18:47:22 46° NW visible
02 Dec -3.6 17:57:36 10° WNW 18:00:58 56° NNE 18:02:11 34° ENE visible
02 Dec -0.5 19:34:32 10° WNW 19:35:10 14° W 19:35:10 14° W visible
03 Dec -3.3 17:10:21 10° WNW 17:13:39 48° N 17:16:57 10° E visible
03 Dec -3.0 18:47:13 10° WNW 18:50:04 52° WSW 18:50:04 52° WSW visible
04 Dec -3.8 17:59:57 10° WNW 18:03:22 86° SSW 18:05:04 27° ESE visible
04 Dec -0.4 19:37:25 10° W 19:38:05 13° WSW 19:38:05 13° WSW visible
05 Dec -3.8 17:12:42 10° WNW 17:16:06 72° NNE 17:19:29 10° ESE visible
05 Dec -1.9 18:49:47 10° W 18:52:43 27° SW 18:53:16 25° SSW visible
06 Dec -2.4 18:02:20 10° WNW 18:05:33 40° SSW 18:08:41 10° SE visible
07 Dec -3.1 17:14:58 10° WNW 17:18:20 59° SSW 17:21:41 10° SE visible
07 Dec -0.6 18:53:24 10° WSW 18:54:35 11° SW 18:55:46 10° SSW visible
08 Dec -0.8 18:05:08 10° W 18:07:29 18° SW 18:09:50 10° S visible
